DW4989 Weather Reports


time (UTC)temp
F
wind
direction
speed
knots
gust
knots
rain 1hr
in
rain 24hr
in
rain mn
in
humidity
%
barometer
mb
20260507114609 27 298 1.7 2.6 0.00 0.00 0.00 86 1013.5
20260507113055 25 0 0.0 0.0 0.00 0.00 0.00 82 1013.4
20260507111552 27 304 1.7 2.6 0.00 0.00 0.00 86 1013.3
20260507110051 27 274 0.0 2.6 0.00 0.00 0.00 84 1013.4
20260507104555 25 328 0.9 1.7 0.00 0.00 0.00 82 1013.4
20260507103050 26 0 0.0 0.9 0.00 0.00 0.00 85 1013.4
20260507101558 26 13 0.0 0.9 0.00 0.00 0.00 83 1013.5
20260507100057 26 13 0.0 0.9 0.00 0.00 0.00 81 1013.6
20260507094555 26 13 0.0 1.7 0.00 0.00 0.00 80 1013.6
20260507093053 27 345 0.9 2.6 0.00 0.00 0.00 81 1013.4
20260507091552 27 181 0.9 2.6 0.00 0.00 0.00 81 1013.6
20260507090051 27 181 0.0 0.9 0.00 0.00 0.00 79 1013.8
20260507084553 28 0 0.0 0.9 0.00 0.00 0.00 80 1014.0
20260507083051 28 181 0.0 0.9 0.00 0.00 0.00 78 1014.0
20260507081556 27 181 0.0 1.7 0.00 0.00 0.00 77 1014.0
20260507080103 28 0 0.0 0.0 0.00 0.00 0.00 77 1014.1
20260507074610 28 0 0.0 0.0 0.00 0.00 0.00 76 1014.2
20260507073055 29 0 0.0 0.0 0.00 0.00 0.00 77 1014.2
20260507071556 29 181 0.9 1.7 0.00 0.00 0.00 80 1014.4
20260507070116 30 0 0.0 0.9 0.00 0.00 0.00 80 1014.6
20260507064607 29 56 0.9 2.6 0.00 0.00 0.00 76 1014.6
20260507063100 29 51 0.9 1.7 0.00 0.00 0.00 74 1015.0
20260507061559 30 0 0.0 0.9 0.00 0.00 0.00 73 1015.2
20260507054557 30 32 0.0 0.0 0.00 0.00 0.00 74 1015.5
20260507053055 31 0 0.0 0.9 0.00 0.00 0.00 72 1015.8
20260507051555 31 21 0.9 1.7 0.00 0.00 0.00 71 1015.8
20260507050058 32 21 0.9 1.7 0.00 0.00 0.00 70 1016.1
20260507044555 32 21 0.9 1.7 0.00 0.00 0.00 69 1016.4
20260507043053 33 21 0.9 0.9 0.00 0.00 0.00 67 1016.5
20260507041552 34 21 0.9 1.7 0.00 0.00 0.00 66 1016.9
20260507040058 34 21 1.7 2.6 0.00 0.00 0.00 66 1017.1
20260507034550 36 0 0.0 0.9 0.00 0.00 0.00 63 1017.1
20260507033101 36 9 0.9 1.7 0.00 0.00 0.00 62 1017.1
20260507031609 38 0 0.0 0.9 0.00 0.00 0.00 60 1017.0
20260507030054 39 9 0.9 1.7 0.00 0.00 0.00 58 1017.2
20260507024554 41 352 0.9 2.6 0.00 0.00 0.00 54 1017.0
20260507023054 43 0 0.0 0.0 0.00 0.00 0.00 52 1017.2
20260507021556 45 0 0.0 0.0 0.00 0.00 0.00 48 1017.3
20260507020053 47 0 0.9 2.6 0.00 0.00 0.00 46 1017.4
20260507014555 51 328 0.0 0.9 0.00 0.00 0.00 39 1017.4
20260507013108 54 328 3.5 4.3 0.00 0.00 0.00 32 1017.4
20260507011550 56 309 2.6 5.2 0.00 0.00 0.00 31 1017.3
20260507004555 57 231 4.3 7.0 0.00 0.00 0.00 32 1017.5
20260507003053 57 264 5.2 10.4 0.00 0.00 0.00 30 1017.7
20260507001555 57 276 7.8 13.0 0.00 0.00 0.00 32 1017.8
20260507000051 57 310 7.8 13.0 0.00 0.00 0.00 28 1018.0
20260506234553 57 297 5.2 13.0 0.00 0.00 0.00 30 1018.1
20260506233106 56 270 3.5 12.2 0.00 0.00 0.00 32 1018.3
20260506231551 57 266 6.1 11.3 0.00 0.00 0.00 29 1018.3
20260506230103 56 259 5.2 13.9 0.00 0.00 0.00 30 1018.3
20260506224553 58 305 3.5 8.7 0.00 0.00 0.00 31 1018.4
20260506223053 58 266 4.3 13.9 0.00 0.00 0.00 29 1018.6
20260506221557 57 260 1.7 9.6 0.00 0.00 0.00 31 1018.8
20260506220059 55 285 9.6 14.8 0.00 0.00 0.00 29 1019.0
20260506214600 55 289 7.8 15.6 0.00 0.00 0.00 30 1019.3
20260506213054 56 280 7.0 15.6 0.00 0.00 0.00 31 1019.4
20260506211601 56 309 7.0 16.5 0.00 0.00 0.00 29 1019.7
20260506210052 57 272 5.2 17.4 0.00 0.00 0.00 32 1019.9
20260506204556 56 259 4.3 12.2 0.00 0.00 0.00 32 1020.1
20260506203055 56 310 6.1 10.4 0.00 0.00 0.00 30 1020.2
20260506201551 56 264 4.3 13.0 0.00 0.00 0.00 30 1020.4
20260506200051 55 359 7.8 14.8 0.00 0.00 0.00 32 1020.6
20260506194607 54 245 4.3 10.4 0.00 0.00 0.00 34 1020.9
20260506193058 54 283 7.0 16.5 0.00 0.00 0.00 31 1020.8
20260506191604 54 248 8.7 14.8 0.00 0.00 0.00 32 1021.1
20260506184559 54 253 6.1 14.8 0.00 0.00 0.00 34 1021.3
20260506183053 54 233 4.3 10.4 0.00 0.00 0.00 36 1021.5
20260506181553 52 282 6.1 16.5 0.00 0.00 0.00 35 1021.9
20260506180055 52 284 6.1 10.4 0.00 0.00 0.00 35 1022.0
20260506174550 51 293 7.0 12.2 0.00 0.00 0.00 36 1022.2
20260506173107 51 256 6.1 16.5 0.00 0.00 0.00 35 1022.3
20260506171602 52 228 0.9 11.3 0.00 0.00 0.00 36 1022.2
20260506164612 49 287 8.7 19.1 0.00 0.00 0.00 36 1022.5
20260506163059 49 345 8.7 15.6 0.00 0.00 0.00 37 1022.4
20260506161555 50 293 7.8 13.0 0.00 0.00 0.00 37 1022.7
20260506160107 49 257 7.0 17.4 0.00 0.00 0.00 38 1022.6
20260506154555 49 273 6.1 10.4 0.00 0.00 0.00 40 1022.5
20260506153102 48 283 7.0 12.2 0.00 0.00 0.00 39 1022.8
20260506151558 48 279 5.2 11.3 0.00 0.00 0.00 43 1022.7
20260506150055 46 278 7.0 12.2 0.00 0.00 0.00 47 1022.7
20260506144555 45 253 5.2 10.4 0.00 0.00 0.00 52 1022.7
20260506143056 43 252 5.2 9.6 0.00 0.00 0.00 56 1023.0
20260506141611 42 240 4.3 7.0 0.00 0.00 0.00 60 1023.2
20260506140058 40 285 4.3 7.8 0.00 0.00 0.00 61 1023.2
20260506134552 38 316 2.6 5.2 0.00 0.00 0.00 65 1023.3
20260506133104 37 261 2.6 6.1 0.00 0.00 0.00 67 1023.1
20260506131556 35 285 2.6 7.0 0.00 0.00 0.00 72 1023.3
20260506130055 33 287 3.5 6.1 0.00 0.00 0.00 74 1023.1
20260506124553 32 275 2.6 4.3 0.00 0.00 0.00 73 1023.0
20260506123058 31 297 1.7 3.5 0.00 0.00 0.00 74 1022.8
20260506121607 30 283 0.0 2.6 0.00 0.00 0.00 76 1022.7
20260506120120 29 311 1.7 3.5 0.00 0.00 0.00 79 1022.5